Tracking 31027 objects as of 19-Jul-2025
HD Live streaming from Space Station
objects crossing your sky now

COSMOS 2251 DEB

Track COSMOS 2251 DEB now!
10-day predictions


NORAD ID: 40799
Int'l Code: 1993-036BWC
Perigee: 504.7 km
Apogee: 674.8 km
Inclination: 73.9 °
Period: 96.3 minutes
Semi major axis: 6960 km
RCS: Unknown
Launch date: June 16, 1993
Source: Commonwealth of Independent States (former USSR) (CIS)
Launch site: PLESETSK MISSILE AND SPACE COMPLEX (PKMTR)

Note: This is SATELLITE DEBRIS
Your satellite tracking list
KORSAT 7
Track 1 satellite(s)




NASA's NSSDC Master Catalog

Two Line Element Set (TLE):
1 40799U 93036BWC 25198.86892191  .00002075  00000-0  16760-3 0  9996
2 40799  73.9270  38.9698 0122196 315.7360  43.4098 14.94924105477665
Source of the keplerian elements: AFSPC